Location: ?p H�a L??ng
(16.3500°N, 107.6167°E)
Time: 00:36:22
(UTC+00:00)

Daily predictions for brighter satellites

Satellite Brightness Start Highest point End
(mag) Time Altitude Azimuth Time Altitude Azimuth Time Altitude Azimuth
Cosmos 2061 Rocket 4.1 11:32:22 10° N 11:38:47 85° E 11:45:07 10° S
Cosmos 1048 Rocket 4.3 11:33:41 10° NNW 11:38:55 73° WSW 11:44:04 10° S
STARLINK-1233 3.9 11:37:09 10° SW 11:41:16 75° NW 11:45:23 10° NNE
Cosmos 1939 Rocket 3.1 11:41:37 10° S 11:45:34 77° W 11:49:36 10° NNW
CZ-4 R/B 1.7 11:41:30 10° S 11:45:38 75° W 11:49:49 10° NNW
Cosmos 1844 Rocket 2.7 11:40:24 10° S 11:45:59 64° ESE 11:51:35 10° NNE
STARLINK-1204 4.1 11:42:09 10° SW 11:46:15 65° NW 11:50:21 10° NNE
Okean-O 3.9 11:43:49 10° S 11:48:01 44° W 11:52:15 10° NNW
Sakura Rocket 4.2 11:44:06 10° SW 11:50:03 66° SSE 11:58:27 10° ENE
SL-24 R/B 4.5 11:46:07 10° SSE 11:50:13 45° ENE 11:54:31 10° N
STARLINK-1238 4.4 11:47:09 10° SW 11:51:12 56° NW 11:55:16 10° NNE
Cosmos 494 Rocket 3.9 11:48:37 10° NNW 11:53:46 86° ENE 11:58:53 10° SSE
